N1674V KBHM-KBHM

Flight info

Callsign N1674V
Flight time 0h 15m
Altitude VFR
Route PATTERN
Aircraft C172/L-DOV/C

Departure

Time 2026-04-22 00:33
Airport Birmingham-Shuttlesworth International Airport (KBHM)

Arrival

Time 2026-04-22 00:48
Airport Birmingham-Shuttlesworth International Airport (KBHM)
Time Latitude Longitude Altitude Speed Heading
2026-04-22 00:28 33.56980 -86.74206 640 ft 14 kts 53°
2026-04-22 00:28 33.57045 -86.74091 644 ft 18 kts 54°
2026-04-22 00:28 33.57109 -86.73981 648 ft 11 kts 53°
2026-04-22 00:28 33.57137 -86.73930 651 ft 4 kts 54°
2026-04-22 00:29 33.57165 -86.73883 654 ft 9 kts 55°
2026-04-22 00:29 33.57224 -86.73829 659 ft 12 kts 356°
2026-04-22 00:29 33.57243 -86.73840 658 ft 0 kts 232°
2026-04-22 00:29 33.57242 -86.73840 658 ft 0 kts 232°
2026-04-22 00:31 33.57241 -86.73843 658 ft 0 kts 272°
2026-04-22 00:31 33.57250 -86.73852 658 ft 5 kts 332°
2026-04-22 00:32 33.57290 -86.73888 658 ft 11 kts 328°
2026-04-22 00:32 33.57278 -86.74029 651 ft 39 kts 234°
2026-04-22 00:32 33.57044 -86.74435 693 ft 68 kts 229°
2026-04-22 00:32 33.56740 -86.74960 798 ft 80 kts 233°
2026-04-22 00:33 33.56434 -86.75523 967 ft 81 kts 237°
2026-04-22 00:33 33.56144 -86.76077 1169 ft 77 kts 236°
2026-04-22 00:33 33.55868 -86.76622 1368 ft 75 kts 237°
2026-04-22 00:33 33.55588 -86.77133 1552 ft 74 kts 233°
2026-04-22 00:34 33.55219 -86.77515 1761 ft 69 kts 195°
2026-04-22 00:34 33.54727 -86.77509 1909 ft 68 kts 202°
2026-04-22 00:34 33.55009 -86.77887 1855 ft 94 kts 331°
2026-04-22 00:34 33.55615 -86.78206 1832 ft 95 kts 329°
2026-04-22 00:35 33.56262 -86.78371 1823 ft 95 kts 10°
2026-04-22 00:35 33.56810 -86.77930 1822 ft 94 kts 41°
2026-04-22 00:35 33.57282 -86.77379 1785 ft 98 kts 44°
2026-04-22 00:35 33.57769 -86.76784 1747 ft 99 kts 45°
2026-04-22 00:36 33.58230 -86.76203 1783 ft 93 kts 46°
2026-04-22 00:36 33.58665 -86.75628 1793 ft 92 kts 45°
2026-04-22 00:36 33.59108 -86.75044 1769 ft 95 kts 47°
2026-04-22 00:36 33.59525 -86.74448 1755 ft 93 kts 55°
2026-04-22 00:37 33.59526 -86.73740 1583 ft 87 kts 145°
2026-04-22 00:37 33.59032 -86.73403 1466 ft 77 kts 160°
2026-04-22 00:37 33.58548 -86.73135 1301 ft 76 kts 161°
2026-04-22 00:37 33.58058 -86.72984 1096 ft 71 kts 195°
2026-04-22 00:38 33.57703 -86.73322 922 ft 61 kts 232°
2026-04-22 00:38 33.57466 -86.73710 779 ft 55 kts 236°
2026-04-22 00:38 33.57245 -86.74088 680 ft 54 kts 236°
2026-04-22 00:38 33.57046 -86.74437 640 ft 50 kts 232°
2026-04-22 00:39 33.56784 -86.74893 705 ft 73 kts 239°
2026-04-22 00:39 33.56496 -86.75401 891 ft 73 kts 238°
2026-04-22 00:39 33.56232 -86.75912 1089 ft 72 kts 236°
2026-04-22 00:39 33.55956 -86.76408 1271 ft 72 kts 234°
2026-04-22 00:40 33.55686 -86.76893 1484 ft 68 kts 233°
2026-04-22 00:40 33.55661 -86.77451 1640 ft 74 kts 306°
2026-04-22 00:40 33.56149 -86.77708 1768 ft 83 kts 333°
2026-04-22 00:40 33.56703 -86.77537 1778 ft 89 kts 41°
2026-04-22 00:41 33.57082 -86.76932 1777 ft 91 kts 55°
2026-04-22 00:41 33.57471 -86.76323 1779 ft 91 kts 48°
2026-04-22 00:41 33.57883 -86.75738 1770 ft 90 kts 49°
2026-04-22 00:41 33.58284 -86.75123 1733 ft 96 kts 50°
2026-04-22 00:42 33.58649 -86.74549 1697 ft 83 kts 53°
2026-04-22 00:42 33.58974 -86.73981 1564 ft 83 kts 58°
2026-04-22 00:42 33.58980 -86.73340 1399 ft 80 kts 141°
2026-04-22 00:42 33.58491 -86.73055 1191 ft 82 kts 165°
2026-04-22 00:43 33.57965 -86.73014 1013 ft 68 kts 212°
2026-04-22 00:43 33.57669 -86.73400 865 ft 61 kts 233°
2026-04-22 00:43 33.57408 -86.73807 753 ft 58 kts 237°
2026-04-22 00:43 33.57193 -86.74178 659 ft 53 kts 235°
2026-04-22 00:44 33.56993 -86.74525 638 ft 62 kts 236°
2026-04-22 00:44 33.56760 -86.74950 643 ft 83 kts 227°
2026-04-22 00:44 33.56479 -86.75459 882 ft 74 kts 237°
2026-04-22 00:44 33.56195 -86.75992 1038 ft 78 kts 234°
2026-04-22 00:45 33.55896 -86.76498 1265 ft 72 kts 231°
2026-04-22 00:45 33.55605 -86.76980 1446 ft 72 kts 235°
2026-04-22 00:45 33.55291 -86.77432 1637 ft 71 kts 219°
2026-04-22 00:45 33.54985 -86.77894 1789 ft 74 kts 258°
2026-04-22 00:46 33.55384 -86.78381 1848 ft 88 kts 329°
2026-04-22 00:46 33.55991 -86.78459 1808 ft 98 kts 22°
2026-04-22 00:46 33.56487 -86.77882 1745 ft 104 kts 50°
2026-04-22 00:46 33.56930 -86.77219 1784 ft 96 kts 46°
2026-04-22 00:47 33.57403 -86.76646 1775 ft 97 kts 45°
2026-04-22 00:47 33.57850 -86.76014 1732 ft 101 kts 49°
2026-04-22 00:47 33.58280 -86.75378 1670 ft 88 kts 50°
2026-04-22 00:47 33.58518 -86.74765 1462 ft 83 kts 119°
2026-04-22 00:48 33.58119 -86.74261 1184 ft 82 kts 149°
2026-04-22 00:48 33.57617 -86.73963 936 ft 77 kts 170°
2026-04-22 00:48 33.57194 -86.74181 726 ft 65 kts 238°
2026-04-22 00:48 33.56964 -86.74573 637 ft 45 kts 236°
2026-04-22 00:49 33.56717 -86.75002 628 ft 81 kts 236°
2026-04-22 00:49 33.56351 -86.75635 625 ft 100 kts 234°
2026-04-22 00:49 33.56068 -86.76105 967 ft 72 kts 246°
2026-04-22 00:49 33.55812 -86.76598 1148 ft 73 kts 231°
2026-04-22 00:50 33.55511 -86.77087 1320 ft 74 kts 241°
2026-04-22 00:50 33.55497 -86.77672 1502 ft 76 kts 294°
2026-04-22 00:50 33.55988 -86.77885 1704 ft 78 kts 347°
2026-04-22 00:50 33.56561 -86.77821 1790 ft 87 kts 18°
2026-04-22 00:51 33.56981 -86.77304 1800 ft 90 kts 49°
2026-04-22 00:51 33.57403 -86.76699 1760 ft 96 kts 46°
2026-04-22 00:51 33.57855 -86.76096 1778 ft 93 kts 46°
2026-04-22 00:51 33.58265 -86.75522 1807 ft 92 kts 45°
2026-04-22 00:52 33.58714 -86.74971 1821 ft 91 kts 39°
2026-04-22 00:52 33.59208 -86.74474 1780 ft 97 kts 32°
2026-04-22 00:52 33.59578 -86.73856 1825 ft 80 kts 85°
2026-04-22 00:52 33.59385 -86.73261 1650 ft 79 kts 146°
2026-04-22 00:53 33.58949 -86.72927 1512 ft 73 kts 159°
2026-04-22 00:53 33.58479 -86.72707 1316 ft 72 kts 180°
2026-04-22 00:53 33.58030 -86.72878 986 ft 73 kts 223°
2026-04-22 00:53 33.57732 -86.73307 862 ft 66 kts 228°
2026-04-22 00:54 33.57481 -86.73684 751 ft 51 kts 236°
2026-04-22 00:54 33.57285 -86.74018 679 ft 49 kts 232°
2026-04-22 00:54 33.57091 -86.74355 640 ft 49 kts 232°
2026-04-22 00:54 33.56832 -86.74759 692 ft 69 kts 237°
2026-04-22 00:55 33.56525 -86.75204 843 ft 71 kts 217°
2026-04-22 00:55 33.56287 -86.75721 962 ft 76 kts 231°
2026-04-22 00:55 33.56074 -86.76630 1315 ft 79 kts
2026-04-22 00:56 33.56619 -86.76469 1354 ft 98 kts 37°
2026-04-22 00:56 33.57069 -86.75843 1358 ft 98 kts 51°
2026-04-22 00:56 33.57485 -86.75182 1302 ft 102 kts 51°
2026-04-22 00:56 33.57912 -86.74482 1234 ft 105 kts 51°
2026-04-22 00:57 33.58359 -86.73779 1168 ft 105 kts 50°
2026-04-22 00:57 33.58714 -86.73104 1216 ft 81 kts 96°
2026-04-22 00:57 33.58341 -86.72778 1104 ft 69 kts 188°
2026-04-22 00:57 33.57925 -86.73002 980 ft 63 kts 221°
2026-04-22 00:58 33.57646 -86.73389 844 ft 63 kts 235°
2026-04-22 00:58 33.57418 -86.73798 742 ft 56 kts 235°
2026-04-22 00:58 33.57193 -86.74177 658 ft 52 kts 239°
2026-04-22 00:58 33.57034 -86.74456 640 ft 33 kts 233°
2026-04-22 00:59 33.56819 -86.74830 632 ft 74 kts 234°
2026-04-22 00:59 33.56531 -86.75346 821 ft 74 kts 235°
2026-04-22 00:59 33.56238 -86.75851 1021 ft 73 kts 232°
2026-04-22 00:59 33.55944 -86.76334 1234 ft 69 kts 233°
2026-04-22 01:00 33.55689 -86.76757 1444 ft 64 kts 226°
2026-04-22 01:00 33.55360 -86.77132 1622 ft 65 kts 209°
2026-04-22 01:00 33.54918 -86.77196 1823 ft 68 kts 152°